Regional Weather Roundup
Issued by NWS Green Bay, WI

Home | Current Version | Previous Version | Text Only | Print | Product List | Glossary On
Versions: 1 2 3 4 5 6 7 8 9 10 11 12 13 14 15 16 17 18 19 20 21 22 23 24 25 26 27 28 29 30 31 32 33 34 35 36 37 38 39 40 41 42 43 44 45 46 47 48 49 50
000
ASUS43 KGRB 041610
RWRGRB

NORTH-CENTRAL AND NORTHEAST WISCONSIN REGIONAL WEATHER ROUNDUP
NATIONAL WEATHER SERVICE GREEN BAY WI
1100 AM CDT MON MAY 04 2015

WIZ005-009-010>012-018-019-041700-
NORTH CENTRAL WISCONSIN

CITY           SKY/WX    TMP DP  RH WIND       PRES   REMARKS
IRONWOOD       SUNNY     55  37  50 NW13      30.15R
MANITOWISH WTR SUNNY     56  36  45 N7G17     30.14R
ARBOR VITAE    SUNNY     59  35  39 N9G18     30.14R
EAGLE RIVER    SUNNY     58  31  36 N9G23     30.13R
LAND O LAKES   SUNNY     58  35  41 N13G22    30.15R
RHINELANDER    SUNNY     58  35  42 N7        30.13R
PHILLIPS       SUNNY     58  34  40 N9        30.14R
ANTIGO         SUNNY     60  39  46 N8        30.13R
TOMAHAWK       SUNNY     59  36  41 NW7       30.14R
MERRILL        SUNNY     60  39  44 N12       30.13R
$$

WIZ013-073-041700-
NORTHEAST WISCONSIN

CITY           SKY/WX    TMP DP  RH WIND       PRES   REMARKS
IRON MOUNTAIN  SUNNY     63  36  36 N18G24    30.09R
MARINETTE      SUNNY     64  41  42 N14       30.08R
OCONTO         SUNNY     67  41  38 N9        30.09R
$$

WIZ017-030-035>037-045-041700-
CENTRAL WISCONSIN

CITY           SKY/WX    TMP DP  RH WIND       PRES   REMARKS
MEDFORD        SUNNY     59  36  41 N13       30.14R
WAUSAU         SUNNY     64  36  35 VRB6      30.11R
MOSINEE        SUNNY     63  37  39 N9        30.13R
MARSHFIELD     SUNNY     66  38  35 N10       30.13R
WISC RAPIDS    SUNNY     66  36  32 NE14      30.13R
STEVENS POINT  SUNNY     64  38  38 N8        30.13R
WAUPACA        SUNNY     68  42  38 N5        30.11R
SHAWANO        SUNNY     69  37  31 NE10      30.10R
CLINTONVILLE   SUNNY     66  41  39 N9        30.09R
$$

WIZ038-039-048-051-041700-
FOX VALLEY

CITY           SKY/WX    TMP DP  RH WIND       PRES   REMARKS
NWS GREEN BAY  SUNNY     69  39  33 NE12      30.09R
APPLETON       MOSUNNY   64  43  45 N13       30.09R
OSHKOSH        MOSUNNY   66  45  46 NE12      30.09R
FOND DU LAC    MOSUNNY   66  54  65 N9        30.09R
$$

WIZ022-050-052-041700-
EAST CENTRAL WISCONSIN

CITY           SKY/WX    TMP DP  RH WIND       PRES   REMARKS
STURGEON BAY   MOSUNNY   61  39  44 N13       30.11R
MANITOWOC      MOSUNNY   67  44  43 N9        30.08R
SHEBOYGAN      PTSUNNY   68  49  50 NE14      30.07R
$$

LMZ563-521-522-541>543-041700-
LAKESHORE

STATION/POSITION TIME  TEMP    WIND        PRES    VSBY  WAVE
                       AIR SEA DIR/SP/G                  HT/PER
                 (UTC) (F)     (DEG/KT/KT) (MB)    (MI)  (FT/S)
SHEBOYGAN LKSHOR 1600   56      20/ 13/ 14 1019.1R
KEWAUNEE LKSHORE 1600   58      30/  7/ 11 1017.5R
NORTHPORT PIER   1600   51     320/  8/ 10 1018.6S
SISTER BAY LKSHO 1600   59      20/ 15/ 18   N/A
CHAMBERS ISLAND  1600   55      20/  9/ 10 1018.6R
MENOMINEE LKSHOR 1600   55      30/  7/  8 1019.1R
$$



USA.gov is the U.S. government's official web portal to all federal, state and local government web resources and services.